Termez, Uzbekistan

11:34 AM +05 on September 25, 2017 (GMT +0500)
Termez

Weather History for UTST - May, 2014

Change the Weather History Date:

Sunday, May 25, 2014

  Actual Average Record
Temperature  
Mean Temperature 78 °F -  
Max Temperature 97 °F - - ()
Min Temperature 58 °F - - ()
Cooling Degree Days 12    
Growing Degree Days 28 (Base 50)    
Moisture  
Dew Point 42 °F    
Average Humidity 30    
Maximum Humidity 72    
Minimum Humidity 6    
Precipitation  
Precipitation 0.00 in 0.00 in - ()
Sea Level Pressure  
Sea Level Pressure 29.90 in    
Wind  
Wind Speed 3 mph ()    
Max Wind Speed 7 mph    
Max Gust Speed -    
Visibility 6.0 miles    
Events      
T = Trace of Precipitation, MM = Missing Value Source: Averaged Metar Reports

Daily Weather History Graph

Daily Weather History Graph

Search for Another Location

Airport or City:

Trip Planner

Search our weather history database for the weather conditions in past years. The results will help you decide how hot, cold, wet, or windy it might be!

Date:

Astronomy

May. 25, 2014 Rise Set
Actual Time 5:15 AM +05 7:40 PM +05
Civil Twilight 4:45 AM +05 8:10 PM +05
Nautical Twilight 4:08 AM +05 8:47 PM +05
Astronomical Twilight 3:28 AM +05 9:28 PM +05
Moon 2:59 AM +05 4:17 PM +05
Length of Visible Light 15h 24m
Length of Day
14h 24m
Waning Crescent, 13% of the Moon is Illuminated
May 25
Waning Crescent
May 28
New
Jun 6
First Quarter
Jun 13
Full
Jun 19
Last Quarter

Hourly Weather History & Observations

Time (+05) Temp. Dew Point Humidity Pressure Visibility Wind Dir Wind Speed Gust Speed Precip Events Conditions
12:00 AM 68.0 °F 44.6 °F 43% 29.92 in - Calm Calm - N/A   Clear
12:30 AM 68.0 °F 44.6 °F 43% 29.92 in - WNW 2.2 mph - N/A   Clear
1:00 AM 68.0 °F 44.6 °F 43% 29.92 in - WNW 4.5 mph - N/A   Clear
1:30 AM 64.4 °F 42.8 °F 45% 29.92 in - NNE 4.5 mph - N/A   Clear
2:00 AM 65 °F 47 °F 42% 29.89 in 6 mi SE 4.5 mph - -  
2:00 AM 68.0 °F 44.6 °F 43% 29.92 in - SE 4.5 mph - N/A   Clear
2:30 AM 66.2 °F 44.6 °F 46% 29.92 in - SE 4.5 mph - N/A   Clear
3:00 AM 66.2 °F 44.6 °F 46% 29.95 in - Variable 2.2 mph - N/A   Clear
3:30 AM 64.4 °F 46.4 °F 52% 29.92 in - Calm Calm - N/A   Clear
4:00 AM 62.6 °F 46.4 °F 55% 29.92 in - Variable 2.2 mph - N/A   Clear
4:30 AM 60.8 °F 46.4 °F 59% 29.92 in - NE 4.5 mph - N/A   Clear
5:00 AM 61 °F 46 °F 48% 29.92 in 6 mi NNE 4.5 mph - -   Scattered Clouds
5:00 AM 59.0 °F 44.6 °F 59% 29.95 in - NNE 6.7 mph - N/A   Clear
5:30 AM 60.8 °F 46.4 °F 59% 29.95 in - NE 4.5 mph - N/A   Clear
6:00 AM 60.8 °F 51.8 °F 72% 29.95 in - NE 6.7 mph - N/A   Clear
6:30 AM 66.2 °F 53.6 °F 64% 29.95 in - NNE 4.5 mph - N/A   Clear
7:00 AM 68.0 °F 53.6 °F 60% 29.95 in - NE 2.2 mph - N/A   Clear
7:30 AM 73.4 °F 53.6 °F 50% 29.95 in - Variable 2.2 mph - N/A   Clear
8:00 AM 75 °F 53 °F 36% 29.93 in 6 mi SE 2.2 mph - -  
8:00 AM 77.0 °F 46.4 °F 34% 29.95 in - Variable 2.2 mph - N/A   Clear
8:30 AM 77.0 °F 44.6 °F 32% 29.98 in - Variable 2.2 mph - N/A   Clear
9:00 AM 80.6 °F 44.6 °F 28% 29.98 in - Variable 2.2 mph - N/A   Clear
9:30 AM 84.2 °F 44.6 °F 25% 29.98 in - Variable 2.2 mph - N/A   Clear
10:00 AM 86.0 °F 42.8 °F 22% 29.98 in - Variable 2.2 mph - N/A   Clear
10:30 AM 87.8 °F 42.8 °F 21% 29.98 in - Variable 2.2 mph - N/A   Clear
11:00 AM 89 °F 46 °F 14% 29.91 in 6 mi SW 4.5 mph - -   Scattered Clouds
11:00 AM 89.6 °F 39.2 °F 17% 29.98 in - SW 4.5 mph - N/A   Clear
11:30 AM 91.4 °F 41.0 °F 17% 29.95 in - Variable 4.5 mph - N/A   Clear
12:00 PM 93.2 °F 37.4 °F 14% 29.95 in - Variable 4.5 mph - N/A   Clear
12:30 PM 93.2 °F 35.6 °F 13% 29.95 in - South 4.5 mph - N/A   Clear
1:00 PM 93.2 °F 32.0 °F 11% 29.92 in - West 6.7 mph - N/A   Clear
1:30 PM 93.2 °F 32.0 °F 11% 29.92 in - SSW 6.7 mph - N/A   Clear
2:00 PM 96 °F 36 °F 6% 29.83 in 6 mi SSW 4.5 mph - -   Scattered Clouds
2:00 PM 96.8 °F 32.0 °F 10% 29.89 in - Variable 2.2 mph - N/A   Clear
2:30 PM 95.0 °F 33.8 °F 12% 29.89 in - ESE 4.5 mph - N/A   Clear
3:00 PM 95.0 °F 30.2 °F 10% 29.89 in - NE 4.5 mph - N/A   Clear
3:30 PM 95.0 °F 35.6 °F 12% 29.86 in - ENE 4.5 mph - N/A   Clear
4:00 PM 95.0 °F 32.0 °F 11% 29.86 in - NNE 4.5 mph - N/A   Clear
4:30 PM 96.8 °F 32.0 °F 10% 29.86 in - Variable 2.2 mph - N/A   Clear
5:00 PM 95 °F 39 °F 8% 29.77 in 6 mi West 4.5 mph - -   Partly Cloudy
5:00 PM 95.0 °F 33.8 °F 12% 29.83 in - West 4.5 mph - N/A   Clear
5:30 PM 95.0 °F 33.8 °F 12% 29.83 in - Variable 2.2 mph - N/A   Clear
6:00 PM 93.2 °F 32.0 °F 11% 29.83 in 6.2 mi Variable 2.2 mph - N/A   Partly Cloudy
6:30 PM 93.2 °F 37.4 °F 14% 29.83 in 6.2 mi Calm Calm - N/A   Partly Cloudy
7:00 PM 87.8 °F 42.8 °F 21% 29.83 in - WSW 2.2 mph - N/A   Clear
8:00 PM 73 °F 48 °F 30% 29.82 in 6 mi ESE 6.7 mph - -  
8:00 PM 82.4 °F 37.4 °F 20% 29.83 in - Calm Calm - N/A   Clear
8:30 PM 84.2 °F 33.8 °F 16% 29.83 in - Variable 2.2 mph - N/A   Clear
9:00 PM 78.8 °F 39.2 °F 24% 29.83 in - Calm Calm - N/A   Clear
9:30 PM 82.4 °F 33.8 °F 17% 29.86 in - North 2.2 mph - N/A   Clear
10:00 PM 77.0 °F 42.8 °F 29% 29.86 in - NNW 4.5 mph - N/A   Clear
10:30 PM 73.4 °F 44.6 °F 36% 29.86 in - ENE 2.2 mph - N/A   Clear
11:00 PM 73 °F 48 °F 30% 29.82 in 6 mi ESE 6.7 mph - -  
11:00 PM 73.4 °F 44.6 °F 36% 29.86 in - ESE 6.7 mph - N/A   Clear
11:30 PM 73.4 °F 42.8 °F 33% 29.86 in - East 4.5 mph - N/A   Clear